吉利星座1组05星 (GEESAT-1 05)

导读

GEESAT 1-05(吉一号05星)是中国于2022年6月2日发射的低轨道卫星,隶属于吉利星座卫星互联网组网项目。该卫星聚焦智能网联汽车、海洋渔业等场景,开展卫星物联网技术验证与星间通信试验,同时可承担生态环境监测等对地遥感观测任务。它的成功入轨,进一步完善了我国低轨卫星物联网星座布局,为天地一体化信息网络建设提供了重要支撑,助力商业航天领域技术创新与场景落地。

Basic Information
目录编号:
52789
目录名称:
GEESAT 1-05
国际标识:
2022-058E
轨道中心:
EARTH
卫星名称:
吉利星座1组05星
卫星全名:
吉利星座1组05星 (GEESAT-1 05)
卫星状态:
在轨 (已飞行1517 天)
发射日期:
2022-06-02 UTC
国别 :
中国 (CN)
星等 :
--
Orbit Information
数据来源 国际轨道数据 AOE轨道数据
星历时间 2026-07-28T11:55:01+0800
10小时前
查看轨道信息
2026-07-24T02:00:00+0800
4天前
查看轨道信息
半长轴 6942.027km 6942.118km
偏心率 0.0002581 0.0002268
轨道倾角 49.988° 49.990°
近地点辐角 263.283° 228.240°
升交点赤经 345.584° 6.604°
平近点角 96.783° 27.992°
近地点 562.098km 562.406km
远地点 565.682km 565.556km
周期 95.938分钟 95.940分钟
每日圈数 15.009746 15.009451
Detailed Information
平衡模式:
三轴稳定
覆盖范围:
全球
运营商:
时空道宇科技有限公司
运营商所在国:
中国
制造商(研发单位):
时空道宇科技有限公司
制造商所在国:
中国
使用方式:
暂无
Satellite Introduction
吉利星座(GeeSAT)也称“吉利未来出行星座”,由吉利旗下时空道宇自主研发,布局硬核科技生态,赋能智慧出行、无人系统、智慧城市等领域,并将全面提升吉利控股旗下极氪、领克、远程新能源商用车等品牌的用户智能出行体验。通过“吉利未来出行星座”建设,吉利控股集团将构建天地一体化高精时空信息系统。该卫星仍在工作。
2D Orbit Map
3D Orbit Map
Orbit Altitude Analysis Chart
Orbit Inclination Analysis Chart
Orbit Comprehensive Analysis Chart
View Comprehensive Chart